Regional Weather Roundup
Issued by NWS

Home | Current Version | Previous Version | Graphics & Text | Print | Product List | Glossary On
Versions: 1 2 3 4 5 6 7 8 9 10 11 12 13 14 15 16 17 18 19 20 21 22 23 24 25 26 27 28 29 30 31 32 33 34 35 36 37 38 39 40 41 42 43 44 45 46 47 48 49 50
000
ASUS43 KLMK 300102
RWRKY
KENTUCKY REGIONAL WEATHER ROUNDUP
NATIONAL WEATHER SERVICE LOUISVILLE KY
900 PM EDT MON JUN 29 2015

NOTE "FAIR" INDICATES FEW OR NO CLOUDS BELOW 12,000 FEET
WITH NO SIGNIFICANT WEATHER AND/OR OBSTRUCTIONS TO VISIBILITY.

KYZ001>023-026-027-061>063-070>075-300200-
WESTERN AND SOUTH CENTRAL KENTUCKY

CITY           SKY/WX    TMP DP  RH WIND       PRES   REMARKS
PADUCAH        CLEAR     81  66  60 N7        29.84R
HENDERSON      CLEAR     75  64  69 NW5       29.84R
OWENSBORO      CLEAR     78  65  64 W5        29.86R
HOPKINSVILLE   NOT AVBL
BOWLING GREEN  MOCLDY    76  69  79 W3        29.86S
GLASGOW        NOT AVBL
$$

KYZ024-025-028>034-038-045-046-053-300200-
NORTH CENTRAL KENTUCKY

CITY           SKY/WX    TMP DP  RH WIND       PRES   REMARKS
LOUISVILLE/SDF CLEAR     78  63  59 W10       29.83R
LOUISVILLE/LOU CLEAR     77  63  61 W9        29.84R
FORT KNOX      NOT AVBL
$$

KYZ035>037-039>044-047>052-055>060-089>105-300200-
NORTHEAST KENTUCKY

CITY           SKY/WX    TMP DP  RH WIND       PRES   REMARKS
LEXINGTON      MOCLDY    71  66  84 SW9       29.83S
COVINGTON      MOCLDY    71  65  81 W6        29.83R
FRANKFORT      CLOUDY    73  68  84 SW6       29.82R
$$

KYZ054-064>069-076>088-106>120-300200-
SOUTHEAST KENTUCKY

CITY           SKY/WX    TMP DP  RH WIND       PRES   REMARKS
JACKSON        CLOUDY    67  65  93 CALM      29.89F
LONDON         CLOUDY    71  65  81 S3        29.90R
SOMERSET       NOT AVBL
MIDDLESBORO    NOT AVBL
MONTICELLO     CLOUDY    67  67 100 S6        29.94S
$$



USA.gov is the U.S. government's official web portal to all federal, state and local government web resources and services.